Torna al catalogo

SL-12 R/B(2)

AttivoGEO
NORAD 21129·ROCKET BODY·🇷🇺 Russia

Lanciato Feb 14, 1991 da Baikonur Cosmodrome

Loading…

TLE

AggiornatoSource: Space-Track

Epoca: Sep 14, 2026, 14:24 UTC

1 21129U 91010F   26257.60058112 -.00000371  00000-0  00000-0 0  9993
2 21129  13.0927 341.7314 0018564 235.3889 120.9593  1.00132725130569

Traccia SL-12 R/B(2) in tempo reale con AllMySat

Download on the App Store